Date,TemperatureHighF,TemperatureAvgF,TemperatureLowF,DewpointHighF,DewpointAvgF,DewpointLowF,HumidityHigh,HumidityAvg,HumidityLow,PressureMaxIn,PressureMinIn,WindSpeedMaxMPH,WindSpeedAvgMPH,GustSpeedMaxMPH,PrecipitationSumIn
2013-3-1,44,38,33,24,19,15,69,47,32,29.52,29.37,11,2,11,0.00
2013-3-2,40,35,31,19,14,8,59,41,30,29.52,29.44,6,2,9,0.00
2013-3-3,50,35,25,15,5,-7,65,32,10,29.55,29.41,11,3,13,0.00
2013-3-4,56,37,24,4,-3,-13,40,20,10,29.65,29.55,11,4,14,0.00
2013-3-5,54,40,31,34,11,-8,99,37,10,29.67,29.34,7,2,8,0.11
2013-3-6,32,32,32,32,32,32,99,99,99,29.34,29.20,0,0,0,0.00
2013-3-7,55,39,30,28,20,3,83,49,12,29.81,29.63,18,4,18,0.00
2013-3-8,51,40,31,25,18,9,76,44,18,29.90,29.78,18,5,18,0.00
2013-3-9,67,44,29,26,17,1,84,49,10,29.94,29.86,5,2,5,0.00
2013-3-10,69,54,32,26,10,-3,77,24,10,29.92,29.67,12,3,12,0.00
2013-3-11,66,53,32,50,32,-18,77,48,10,29.82,29.51,10,4,12,0.01
2013-3-12,69,54,1,59,40,-29,99,65,20,29.57,29.32,8,5,13,0.94
2013-3-13,54,42,32,27,11,-6,78,34,10,29.71,29.52,12,4,17,0.00
2013-3-14,55,38,29,8,0,-11,37,23,10,29.77,29.65,12,4,16,0.00
2013-3-15,63,46,-10,17,3,-51,39,18,10,29.73,29.41,10,4,12,0.01
2013-3-16,72,54,43,56,35,16,98,54,21,29.43,29.22,11,3,11,0.20
2013-3-17,50,38,32,39,36,-4,99,93,10,29.87,29.49,5,1,5,0.09
2013-3-18,34,33,32,34,32,-18,99,98,10,29.88,29.50,4,0,4,0.25
2013-3-19,66,42,32,33,18,-9,99,61,10,29.58,29.34,20,4,24,0.13
2013-3-20,58,45,33,9,-6,-16,32,12,10,29.63,29.37,16,5,17,0.00
2013-3-21,44,35,26,27,2,-15,87,32,10,29.55,29.37,14,4,16,0.00
2013-3-22,56,38,24,8,-2,-11,41,21,10,29.61,29.49,9,4,15,0.00
2013-3-23,64,43,26,17,6,-7,59,26,10,29.66,29.50,11,2,11,0.00
2013-3-24,43,36,32,32,19,5,99,58,21,29.61,29.25,6,1,100,0.00
2013-3-25,45,35,31,38,33,30,99,93,64,29.33,29.14,6,1,6,0.11
2013-3-26,52,41,30,32,22,11,93,52,21,29.65,29.33,13,3,13,0.00
2013-3-27,53,41,32,26,14,0,71,39,13,29.78,29.65,14,4,16,0.19
2013-3-28,55,43,32,31,12,-2,63,32,10,29.86,29.74,20,4,20,0.33
2013-3-29,66,47,33,29,15,-2,71,35,10,29.89,29.75,8,2,9,0.00
2013-3-30,70,52,32,27,13,0,70,28,10,29.84,29.68,8,2,11,0.00
2013-3-31,56,46,41,51,38,6,99,75,15,29.70,29.37,9,2,9,0.08